www.pogodaiklimat.ru

Погода и климат >> Архив погоды >> Россия >> Дагестан >> Южно-Сухокумск


ПОГОДА в Южно-Сухокумске

  • Прогноз погоды в Южно-Сухокумске
  • Монитор погоды в Южно-Сухокумске

АРХИВ ПОГОДЫ в Южно-Сухокумске

Время (UTC), дата Ветер
(напр.,м/с)
 
Видим.   Явления Облачность Т
(С)
Тd
(С)
f
(%)
Тe
(С)
Тes
(С)
Комфортность P
(гПа)
Po
(гПа)
Тmin
(С)
Tmax
(С)
R
(мм)
R24
(мм)
S
(см)
06 16.08 ЮВ 7-10
{12}
10 км 8/8 600 м
[Sc]
+26.2 +16.8 56 +30 +30 душно 1011.0 1008.8
09 16.08 ЮВ 8-12
{14}
10 км ясно +31.0 +12.0 31 +31 +34 жарко 1009.5 1007.4
12 16.08 ЮВ 9-14
{14}
10 км ясно +31.6 +10.7 28 +32 +32 жарко 1007.8 1005.6
15 16.08 ЮВ 8-14
{14}
10 км ясно +29.4 +9.9 30 +29 +30 жарко 1007.2 1005.0 +31.9
18 16.08 В 4
{14}
20 км 3/0
[Ci fib]
+22.8 +16.0 65 +27 +27 душно 1009.2 1007.0
21 16.08 В 5 20 км ясно +21.4 +16.5 74 +25 +25 комфорт 1007.7 1005.5
00 17.08 В 2 20 км 8/0
[Ac trans Ci fib]
+20.3 +16.4 78 +24 +24 комфорт 1008.4 1006.1
03 17.08 В 4 10 км 8/0
[Ac trans]
+21.3 +16.3 73 +25 +25 комфорт 1007.8 1005.6 +19.8
06 17.08 Ю 6 10 км 8/0
[As trans]
+25.0 +16.9 61 +29 +31 душно 1009.1 1006.9
09 17.08 ЮВ 4 10 км 8/8 600 м
[Sc]
+28.6 +14.9 43 +31 +33 жарко 1008.3 1006.1
12 17.08 ЮВ 6-10
{13}
10 км 6/0
[Ac trans Ci fib]
+33.9 +7.1 19 +32 +34 жарко 1008.4 1006.3
15 17.08 ЮВ 5
{12}
10 км 8/8 600 м
[Sc]
+30.5 +10.1 28 +30 +30 жарко 1008.9 1006.7 +34.0
18 17.08 В 4 20 км 8/5 600 м
[Sc Ac trans]
+24.8 +16.9 61 +28 +28 жарко 1011.2 1009.1
21 17.08 Ю 5
{12}
20 км 8/8 600 м
[Sc]
+22.8 +17.1 70 +28 +28 душно 1010.3 1008.1
00 18.08 В 2 20 км {дождь} 8/8 600 м
[Sc]
+21.5 +17.8 79 +26 +26 душно 1009.7 1007.5
03 18.08 В 2 10 км 8/6 600 м
[Sc Ac trans]
+21.5 +18.0 80 +26 +26 душно 1009.3 1007.1 +20.9 0.3
06 18.08 В 3 10 км 3/0
[Ac trans]
+27.9 +13.1 40 +30 +36 жарко 1009.0 1006.8
09 18.08 ЮВ 7 10 км 4/0
[Ci fib]
+33.4 +10.5 25 +33 +37 жарко 1007.7 1005.5
12 18.08 ЮВ 10-17
{18}
10 км 8/0
[Ac trans]
+34.8 +4.3 15 +32 +32 жарко 1007.0 1004.9
15 18.08 ЮВ 9-14
{17}
10 км 8/0
[Ci fib]
+31.7 +8.2 23 +31 +31 жарко 1008.0 1005.8 +35.6
18 18.08 В 4
{14}
20 км 4/0
[Ac trans]
+25.1 +16.6 59 +29 +29 душно 1010.1 1007.9
21 18.08 ЮВ 4 20 км 3/0
[Ci fib]
+23.5 +15.5 61 +27 +27 душно 1010.2 1008.0
00 19.08 ЮВ 4 20 км 9/0
[Ac trans]
+22.4 +17.5 74 +27 +27 душно 1010.8 1008.6
03 19.08 ЮВ 4 10 км 8/0
[Ac trans]
+22.9 +18.0 74 +28 +29 душно 1012.4 1010.2 +22.4
06 19.08 Ю 4 10 км 9/0
[Ac trans]
+27.2 +18.6 59 +32 +35 очень
душно
1013.2 1011.1
09 19.08 ЮЗ 6 10 км 8/0
[Ac trans]
+31.1 +15.9 40 +34 +37 душно 1013.6 1011.5
12 19.08 ЮВ 3 10 км ясно +36.5 +11.8 23 +36 +43 очень
жарко
1013.0 1010.9
15 19.08 ЮВ 6-10
{12}
10 км ясно +34.7 +7.1 18 +33 +33 жарко 1013.6 1011.5 +36.7
18 19.08 ЮВ 4
{11}
20 км ясно +26.4 +15.1 50 +29 +29 жарко 1015.7 1013.6
21 19.08 В 3 20 км ясно +21.6 +17.7 78 +26 +26 душно 1015.7 1013.5
00 20.08 В 3 20 км ясно +20.2 +17.1 82 +24 +24 комфорт 1015.8 1013.6
03 20.08 ЮВ 4 10 км ясно +20.5 +16.6 78 +24 +24 комфорт 1016.4 1014.2 +19.1
06 20.08 Ю 5 10 км 3/0
[Ac trans]
+29.1 +12.3 35 +30 +34 жарко 1017.0 1014.8
09 20.08 ЮВ 8-14
{14}
10 км 4/0
[Ac trans Ci fib]
+36.1 +5.4 15 +33 +36 жарко 1015.5 1013.4
12 20.08 ЮВ 8-13
{15}
10 км 3/0
[Ac trans]
+36.8 +5.3 14 +34 +35 очень
жарко
1014.7 1012.6
15 20.08 ЮВ 6-10
{13}
10 км 4/0
[Ac trans Ci fib]
+33.5 +7.5 20 +32 +32 жарко 1015.5 1013.3 +37.7
18 20.08 В 3
{10}
20 км 3/0
[Ci fib]
+24.9 +13.5 49 +27 +27 жарко 1016.7 1014.5
21 20.08 В 4 20 км 4/0
[Ac trans]
+22.4 +17.3 73 +27 +27 душно 1015.8 1013.6
00 21.08 В 3 20 км 4/0
[Ci fib]
+20.8 +16.4 76 +25 +25 комфорт 1015.7 1013.4
03 21.08 В 2 10 км 3/0 600 м
[Ac trans]
+20.0 +16.2 79 +23 +24 комфорт 1015.8 1013.6 +19.9
06 21.08 ЮВ 5 10 км 3/0
[Ci fib]
+29.4 +9.3 29 +29 +34 жарко 1015.8 1013.6
09 21.08 ЮВ 5-10
{10}
10 км 4/0
[Ci fib]
+35.5 +4.7 15 +33 +40 жарко 1014.2 1012.1
12 21.08 ЮВ 5
{10}
10 км 3/0
[Ac trans]
+37.2 +5.0 14 +34 +38 очень
жарко
1012.5 1010.4
15 21.08 ЮВ 6-11
{11}
10 км ясно +33.2 +5.0 17 +31 +31 жарко 1012.7 1010.5 +37.3
18 21.08 В 3
{11}
10 км ясно +25.7 +12.9 45 +28 +28 жарко 1013.3 1011.1
21 21.08 В 3 20 км ясно +22.5 +16.7 70 +27 +27 душно 1013.0 1010.8
00 22.08 В 4 20 км ясно +20.4 +15.8 75 +23 +23 комфорт 1012.4 1010.2
03 22.08 В 3 10 км ясно +20.3 +18.1 87 +24 +24 комфорт 1012.7 1010.5 +18.8
06 22.08 В 3 10 км ясно +30.4 +14.1 37 +32 +39 жарко 1012.8 1010.7
09 22.08 В 6-10
{10}
10 км ясно +36.5 +3.9 13 +33 +39 жарко 1011.7 1009.5
12 22.08 В 5-11
{12}
10 км ясно +36.2 +3.6 13 +33 +38 жарко 1011.2 1009.1
15 22.08 В 5
{10}
10 км ясно +34.2 +3.4 14 +31 +31 жарко 1011.3 1009.2 +37.0
18 22.08 В 3 20 км ясно +25.7 +8.4 33 +26 +26 жарко 1012.8 1010.6
21 22.08 В 3 20 км ясно +22.7 +16.9 70 +27 +27 душно 1012.7 1010.5
00 23.08 В 3 20 км ясно +21.6 +17.7 78 +26 +26 душно 1012.0 1009.8
03 23.08 В 3 10 км ясно +21.2 +17.8 81 +25 +25 комфорт 1012.4 1010.2 +20.6

 

Местоположение метеостанции Южно-Сухокумск (Дагестан, Россия): широта 44.65 долгота 45.65 высота над уровнем моря 19 м.

В архиве по умолчанию представлена погода в Южно-Сухокумске за последнюю неделю. Архивные данные за месяц целиком и за предыдущие месяцы, начиная с января 2011 года, Вы можете получить, выбрав интересующий диапазон дат из раскрывающегося списка и нажав кнопку "Ввод!".


*Определитесь, кто Вы:
робот инопланетянин человек

Внимание! Время в таблицах - всемирное. Для получения местного времени необходимо прибавить поправку, которая равна 3 ч.

Смотрите также архив погоды в соседних городах и на ближайших метеорологических станциях:

Погода в Терекли-Мектебе (Дагестан, Россия) (61 км)
Погода в Рощино (Ставропольский край, Россия) (66 км)
Погода в Кочубее (Дагестан, Россия) (77 км)
Погода в Комсомольском (Калмыкия, Россия) (83 км)
Погода в Артезиане (Калмыкия, Россия) (91 км)
Погода в Наурской (Чечня, Россия) (114 км)
Погода в Буденновске (Ставропольский край, Россия) (121 км)
Погода в Кизляре (Дагестан, Россия) (125 км)
Погода в Моздоке (Северная Осетия, Россия) (129 км)
Погода в Шелковской (Чечня, Россия) (137 км)

Пояснения к столбцам:

Ветер - указаны скорость ветра в м/с - средняя за 10 мин, порывы в срок и между сроками (в фигурных скобках) и направление, откуда дует ветер: С - северный, СВ - северо-восточный, В - восточный, ЮВ - юго-восточный, Ю - южный, ЮЗ - юго-западный, З - западный, СЗ - северо-западный.
Видимость - горизонтальная дальность видимости в метрах или километрах. При видимости от 1 до 10 км при отсутствии осадков обычно наблюдается дымка, при ухудшении видимости до 1 км и менее - туман. В сухую погоду видимость может ухудшаться дымом, пылью или мглою.
Явления - указаны атмосферные явления, наблюдавшиеся в срок или в последний час перед сроком; фигурными скобками обозначены явления, наблюдавшиеся между сроками (за 1-3 часа до срока); квадратными скобками обозначены град или гололедные отложения с указанием их диаметра в мм.
Облачность - указаны через наклонную черту общая и нижняя облачность в баллах и высота нижней границы облаков в метрах; квадратными скобками обозначены формы облаков: Ci - перистые, Cs - перисто-слоистые, Cc - перисто-кучевые, Ac - высококучевые, As - высокослоистые, Sc - слоисто-кучевые, Ns - слоисто-дождевые, Cu - кучевые, Cb - кучево-дождевые. Подробнее классификацию облаков см. в Атласе облаков (PDF).
T - Температура воздуха - температура, измеренная на высоте 2 м над землей.
Td - Температура точки росы - температура, при понижении до которой содержащийся в воздухе водяной пар достигнет насыщения.
f - Относительная влажность воздуха - влажноcть воздуха, измеренная на высоте 2 м над землей.
Te - Эффективная температура - температура, которую ощущает одетый по сезону человек в тени. Характеристика душности погоды. При расчете учитывается влияние влажности воздуха и скорости ветра на теплоощущения человека.
Tes - Эффективная температура на солнце - температура, которую ощущает человек, с поправкой на солнечный нагрев. Характеристика знойности погоды. Зависит от высоты солнца над горизонтом, облачности и скорости ветра. Ночью, в пасмурную погоду, а также при ветре 12 м/с и более поправка равна нулю.
P - Атмосферное давление - приведенное к уровню моря атмосферное давление.
Po - Атмосферное давление - измеренное на уровне метеостанции атмосферное давление.
Tmin - Минимальная температура - минимум температуры воздуха на высоте 2 м над землей.
Tmax - Максимальная температура - максимум температуры воздуха на высоте 2 м над землей.
R - Количество осадков - Количество выпавших осадков за период времени, мм. При наведении курсора мыши на число - период времени, за который выпало указанное количество осадков.
R24 - Количество осадков - Количество выпавших осадков за 24 часа, мм.
S - Снежный покров - Высота снежного покрова, см. При наведении курсора мыши на число - состояние снежного покрова и степень покрытия местности в баллах.